weather.gov     
National Weather Service

Terminal Aerodrome Forecast
NWS Homepage
This page is being discontinued on March 12, 2014.
The same data is available at this site. Please update your bookmarks.
Thank you, and we apologize for the inconvenience.
Please send an email to SR-SRH.Webmaster@noaa.gov with any concerns.


Current Version
Previous Version:    01  02  03  04  05  06  07  08  09  10  11  12  13  14  15  16  17  18  19  20  21  22  23  24  25  26  27  28  29  
[Printable]
044
FTUS45 KBOI 231133
TAFBKE
TAF
KBKE 231133Z 2312/2412 11011KT P6SM -SHRA OVC050
     FM232100 13012G18KT P6SM -SHRA SCT025 OVC050
     FM240300 VRB05KT P6SM -SHRA OVC050=




044
FTUS45 KBOI 231133
TAFBKE
TAF
KBKE 231133Z 2312/2412 11011KT P6SM -SHRA OVC050
     FM232100 13012G18KT P6SM -SHRA SCT025 OVC050
     FM240300 VRB05KT P6SM -SHRA OVC050=


U.S. Dept. of Commerce
NOAA National Weather Service
1325 East West Highway
Silver Spring, MD 20910
E-mail: w-nws.webmaster@noaa.gov
Page last modified: May 16, 2007
NATIONAL WEATHER SERVICE: for Safety, for Work, for Fun - FOR LIFE